Weather reports worldwide

Advertisment
Nice, France (7690): temperature & dewpoint: 10.01.2021 06:00:00 - 16.01.2021 06:00:00 (CET)Nice, France (7690): temperature 5cm: 10.01.2021 06:00:00 - 16.01.2021 06:00:00 (CET)Nice, France (7690): temperature -20cm & temperature -100cm: 10.01.2021 06:00:00 - 16.01.2021 06:00:00 (CET)Nice, France (7690): wind speed & gusts: 10.01.2021 06:00:00 - 16.01.2021 06:00:00 (CET)Nice, France (7690): wind direction: 10.01.2021 06:00:00 - 16.01.2021 06:00:00 (CET)Nice, France (7690): reduced air pressure: 10.01.2021 06:00:00 - 16.01.2021 06:00:00 (CET)Nice, France (7690): visibility: 10.01.2021 06:00:00 - 16.01.2021 06:00:00 (CET)Nice, France (7690): sunshine duration: 10.01.2021 06:00:00 - 16.01.2021 06:00:00 (CET)Nice, France (7690): precipitation: 10.01.2021 06:00:00 - 16.01.2021 06:00:00 (CET)
Date & Time tt [°C] td [°C] tt 5cm [°C] tt -20cm [°C] tt -100cm [°C] ff [km/h] ff [kn] fx [km/h] fx [kn] dd ppp [hPa] vv [km] sd [min] rr [mm]
16.01.2021 06:00:00 7,2 5,3 6,6 10,3 12,0 13 7 19 10 NW 1019,5 25 0 0,0
16.01.2021 05:00:00 7,4 5,2 6,8 10,3 12,0 16 9 23 12 NW 1019,1 30 0 0,0
16.01.2021 04:00:00 7,2 5,0 6,8 10,3 12,0 15 8 20 11 NW 1018,8 30 0 0,0
16.01.2021 03:00:00 7,4 5,5 7,1 10,2 12,0 16 9 19 10 NW 1018,6 25 0 0,0
16.01.2021 02:00:00 7,7 5,8 6,6 10,3 12,1 12 7 18 10 NW 1017,8 20 0 0,0
16.01.2021 01:00:00 8,1 6,1 6,5 10,3 12,0 10 5 16 9 NW 1017,5 15 0 0,0
16.01.2021 00:00:00 8,8 6,1 7,7 10,2 12,0 14 8 22 12 E 1017,3 15 0 0,0
15.01.2021 23:00:00 8,8 6,9 8,0 10,2 12,0 9 5 12 7 NNW 1016,6 15 0 0,0
15.01.2021 22:00:00 8,8 7,2 8,3 10,3 12,1 7 4 17 9 NNW 1016,3 15 0 0,0
15.01.2021 21:00:00 9,0 7,3 7,5 10,2 12,0 14 8 19 10 NW 1015,6 15 0 0,0
15.01.2021 20:00:00 9,5 7,4 8,5 10,2 12,0 13 7 18 10 NW 1015,1 15 0 0,4
15.01.2021 19:00:00 9,9 7,7 9,1 10,2 12,0 13 7 20 11 NNW 1014,6 10 0 0,0
15.01.2021 18:00:00 10,4 7,5 9,4 10,3 12,1 10 5 21 12 WNW 1014,1 40 0 0,0
15.01.2021 17:00:00 12,3 7,4 11,5 10,2 12,1 17 9 27 15 SSW 1013,8 40 0 0,0
15.01.2021 16:00:00 12,4 6,9 12,0 10,2 12,1 19 10 25 13 SSW 1013,4 40 0 0,0
15.01.2021 15:00:00 12,8 6,4 13,0 10,2 12,1 13 7 29 15 SW 1013,1 40 14 0,0
15.01.2021 14:00:00 12,6 6,0 12,5 10,2 12,1 17 9 27 14 SW 1013,0 40 0 0,0
15.01.2021 13:00:00 12,9 6,5 14,1 10,2 12,0 21 11 28 15 SW 1013,8 40 19 0,0
15.01.2021 12:00:00 13,4 6,9 9,4 10,2 12,1 12 7 24 13 WSW 1014,4 40 30 0,0
15.01.2021 11:00:00 8,5 4,3 8,2 10,1 12,0 18 10 29 15 NW 1014,4 40 3 0,0
15.01.2021 10:00:00 7,7 3,7 6,5 10,2 12,1 19 10 26 14 NNW 1013,6 40 0 0,0
15.01.2021 09:00:00 7,0 3,6 6,2 10,2 12,1 16 9 22 12 NNW 1012,6 40 1 0,0
15.01.2021 08:00:00 7,1 3,7 6,2 10,2 12,1 16 9 23 12 NNW 1012,0 40 0 0,0
15.01.2021 07:00:00 7,6 4,2 6,4 10,2 12,1 16 9 24 13 NNW 1011,5 20 0 0,0
15.01.2021 06:00:00 7,5 4,4 6,7 10,2 12,1 19 10 24 13 NW 1011,3 20 0 0,0
15.01.2021 05:00:00 7,6 4,9 6,7 10,2 12,1 16 9 20 11 NW 1011,6 20 0 0,2
15.01.2021 04:00:00 7,7 5,2 6,7 10,2 12,1 10 6 18 10 NW 1012,1 20 0 0,2
15.01.2021 03:00:00 8,5 5,1 6,7 10,1 12,0 19 10 27 15 NW 1011,7 20 0 0,2
15.01.2021 02:00:00 7,8 4,0 7,1 10,1 12,1 21 12 29 15 NW 1011,1 20 0 0,0
15.01.2021 01:00:00 7,6 4,5 6,7 10,1 12,1 20 11 27 15 NW 1011,3 20 0 0,0
15.01.2021 00:00:00 7,5 5,0 6,4 10,1 12,1 12 7 24 13 NNW 1011,5 20 0 0,0
14.01.2021 23:00:00 7,8 5,9 6,3 10,1 12,1 14 8 19 10 NNW 1010,9 20 0 0,0
14.01.2021 22:00:00 8,2 6,2 6,6 10,1 12,1 11 6 18 10 NNW 1010,8 20 0 0,0
14.01.2021 21:00:00 8,9 6,7 6,8 10,2 12,2 13 7 16 9 NNW 1010,2 20 0 0,0
14.01.2021 20:00:00 9,9 7,1 8,6 10,1 12,1 8 4 15 8 NNW 1010,3 20 0 0,0
14.01.2021 19:00:00 10,9 7,8 10,2 10,1 12,1 5 3 17 9 NE 1009,6 20 0 0,0
14.01.2021 18:00:00 11,9 8,0 9,5 10,1 12,1 11 6 16 9 E 1009,2 20 0 0,0
14.01.2021 17:00:00 11,8 7,9 10,4 10,1 12,2 11 6 21 11 E 1008,8 20 37 0,0
14.01.2021 16:00:00 12,3 8,0 14,1 10,1 12,2 17 9 26 14 ESE 1008,5 20 60 0,0
14.01.2021 15:00:00 12,8 8,5 15,5 10,1 12,1 19 11 26 14 E 1008,1 20 60 0,0
14.01.2021 14:00:00 12,8 8,9 13,9 10,2 12,2 19 10 27 14 E 1008,1 20 60 0,0
14.01.2021 13:00:00 12,7 8,8 14,0 10,1 12,2 11 6 16 8 E 1008,9 30 60 0,0
14.01.2021 12:00:00 12,3 7,8 - - - 5 3 11 6 E 1009,4 30 - 0,0
14.01.2021 11:00:00 11,9 6,6 12,3 10,1 12,2 4 2 14 8 ENE 1010,1 40 60 0,0
14.01.2021 10:00:00 8,4 3,6 8,1 10,1 12,2 13 7 19 11 NW 1010,3 40 60 0,0
14.01.2021 09:00:00 5,6 2,9 2,9 10,1 12,1 13 7 18 10 NNW 1010,8 40 23 0,0
14.01.2021 08:00:00 4,5 2,0 2,0 10,1 12,2 12 7 16 9 NNW 1011,0 30 0 0,0
14.01.2021 07:00:00 4,1 1,1 0,9 10,1 12,2 10 5 13 7 NW 1010,9 30 0 0,0
14.01.2021 06:00:00 4,5 1,3 2,0 10,1 12,2 9 5 18 10 NNW 1010,8 30 0 0,0
14.01.2021 05:00:00 4,9 1,4 3,3 10,1 12,2 16 9 27 14 NW 1011,1 30 0 0,0
14.01.2021 04:00:00 5,3 1,4 3,9 10,1 12,2 19 10 26 14 NW 1012,0 30 0 0,0
14.01.2021 03:00:00 5,0 2,0 3,5 10,1 12,2 14 8 21 11 NNW 1012,8 30 0 0,0
14.01.2021 02:00:00 5,4 2,2 2,7 10,1 12,2 12 6 22 12 NNW 1013,7 30 0 0,0
14.01.2021 01:00:00 5,0 2,2 3,0 10,1 12,2 8 4 15 8 N 1013,9 30 0 0,0
14.01.2021 00:00:00 5,4 3,1 3,7 10,1 12,2 9 5 16 9 N 1014,4 30 0 0,0
13.01.2021 23:00:00 5,4 3,2 4,3 10,1 12,2 8 5 20 11 NNW 1014,7 30 0 0,0
13.01.2021 22:00:00 5,5 3,7 4,3 10,2 12,2 13 7 21 12 NW 1014,7 30 0 0,0
13.01.2021 21:00:00 6,4 4,1 5,6 10,1 12,2 16 9 26 14 NW 1015,0 30 0 0,0
13.01.2021 20:00:00 7,1 4,9 6,1 10,1 12,2 18 10 21 11 NW 1015,4 40 0 0,0
13.01.2021 19:00:00 7,7 5,3 4,0 10,1 12,2 13 7 17 9 NW 1015,9 40 0 0,0
13.01.2021 18:00:00 9,5 5,7 4,6 10,1 12,2 0 0 6 3 N 1015,4 50 0 0,0
13.01.2021 17:00:00 11,6 5,9 10,8 10,2 12,2 3 2 12 7 E 1015,0 50 52 0,0
13.01.2021 16:00:00 11,9 6,6 14,1 10,2 12,3 11 6 19 10 E 1014,9 50 60 0,0
13.01.2021 15:00:00 12,6 7,7 15,4 10,2 12,2 12 7 18 10 E 1014,6 50 60 0,0
13.01.2021 14:00:00 12,3 6,3 13,2 10,2 12,3 7 4 10 5 ESE 1014,4 50 60 0,0
13.01.2021 13:00:00 12,2 5,6 13,4 10,2 12,3 5 3 9 5 E 1015,0 50 60 0,0
13.01.2021 12:00:00 11,7 3,2 17,3 10,2 12,3 3 2 6 3 NNE 1016,1 50 60 0,0
13.01.2021 11:00:00 10,0 3,7 11,9 10,2 12,3 2 1 16 8 N 1016,0 50 60 0,0
13.01.2021 10:00:00 7,6 0,3 7,6 10,2 12,3 5 3 21 11 N 1015,7 50 60 0,0
13.01.2021 09:00:00 5,1 -0,5 2,6 10,2 12,2 13 7 22 12 NNW 1015,3 50 33 0,0
13.01.2021 08:00:00 4,0 -1,2 2,3 10,2 12,3 11 6 28 15 NNW 1014,6 50 0 0,0
13.01.2021 07:00:00 3,9 -1,5 2,4 10,2 12,2 15 8 28 15 NNW 1014,3 50 0 0,0
13.01.2021 06:00:00 3,7 -1,9 2,3 10,2 12,3 19 10 26 14 NNW 1013,8 50 0 0,0
13.01.2021 05:00:00 3,7 -2,1 1,9 10,2 12,3 17 9 27 15 NNW 1013,7 50 0 0,0
13.01.2021 04:00:00 3,5 -2,3 1,8 10,2 12,3 18 10 26 14 NNW 1013,7 50 0 0,0
13.01.2021 03:00:00 3,4 -2,6 2,6 10,2 12,3 17 9 21 12 NW 1013,9 50 0 0,0
13.01.2021 02:00:00 3,7 -2,5 2,7 10,2 12,3 15 8 26 14 NNW 1013,7 40 0 0,0
13.01.2021 01:00:00 3,7 -2,5 2,1 10,2 12,3 18 10 23 13 NW 1013,9 30 0 0,0
13.01.2021 00:00:00 3,5 -2,3 2,2 10,2 12,3 11 6 19 11 NNW 1014,1 30 0 0,0
12.01.2021 23:00:00 3,6 -2,2 1,9 10,3 12,3 17 9 22 12 NW 1013,8 30 0 0,0
12.01.2021 22:00:00 3,9 -2,3 2,2 10,3 12,3 11 6 17 9 NNW 1013,4 30 0 0,0
12.01.2021 21:00:00 4,1 -1,9 2,6 10,3 12,3 13 7 15 8 NW 1013,3 30 0 0,0
12.01.2021 20:00:00 4,9 -1,8 3,5 10,3 12,3 7 4 21 12 NNW 1013,1 30 0 0,0
12.01.2021 19:00:00 5,5 -2,1 4,3 10,3 12,3 13 7 18 10 NW 1013,3 30 0 0,0
12.01.2021 18:00:00 6,4 -1,8 4,9 10,3 12,3 13 7 16 9 NW 1013,7 40 0 0,0
12.01.2021 17:00:00 8,4 1,1 6,5 10,3 12,3 5 3 11 6 E 1013,7 40 0 0,0
12.01.2021 16:00:00 8,6 1,5 8,1 10,3 12,3 5 3 9 5 E 1013,9 40 0 0,0
12.01.2021 15:00:00 9,0 -0,1 11,3 10,3 12,3 0 0 9 5 N 1014,4 40 20 0,0
12.01.2021 14:00:00 8,6 -0,7 8,5 10,3 12,3 8 4 21 11 WSW 1014,7 40 23 0,0
12.01.2021 13:00:00 7,4 -2,9 7,4 10,3 12,3 16 9 23 13 NW 1016,0 40 0 0,0
12.01.2021 12:00:00 6,2 -3,2 5,9 10,3 12,4 18 10 28 15 NW 1017,0 40 0 0,0
12.01.2021 11:00:00 5,2 -3,1 4,8 10,3 12,3 21 12 30 16 NW 1017,8 40 0 0,0
12.01.2021 10:00:00 4,5 -3,3 3,7 10,3 12,3 23 12 34 18 NW 1017,8 40 0 0,0
12.01.2021 09:00:00 3,7 -3,6 2,5 10,3 12,4 16 9 29 15 NNW 1017,7 40 17 0,0
12.01.2021 08:00:00 3,3 -3,5 2,4 10,3 12,3 18 10 34 18 NNW 1017,7 40 0 0,0
12.01.2021 07:00:00 3,3 -3,1 1,9 10,3 12,4 23 12 29 16 NNW 1017,9 40 0 0,0
12.01.2021 06:00:00 3,3 -2,9 2,0 10,3 12,4 15 8 24 13 NNW 1018,0 40 0 0,0
12.01.2021 05:00:00 3,7 -2,7 2,3 10,3 12,4 17 9 24 13 NNW 1018,1 40 0 0,0
12.01.2021 04:00:00 3,8 -2,4 2,2 10,3 12,4 18 10 24 13 NNW 1018,3 40 0 0,0
12.01.2021 03:00:00 4,1 -1,9 2,8 10,3 12,4 11 6 24 13 NNW 1018,7 40 0 0,0
12.01.2021 02:00:00 4,4 -1,8 2,7 10,3 12,4 18 10 26 14 NNW 1018,5 40 0 0,0
12.01.2021 01:00:00 4,0 -1,2 2,9 10,3 12,4 16 9 28 15 NNW 1018,7 40 0 0,0
12.01.2021 00:00:00 4,0 -0,6 2,8 10,3 12,4 22 12 29 15 NNW 1019,1 40 0 0,0
11.01.2021 23:00:00 3,8 -0,2 2,7 10,2 12,4 15 8 18 10 NNW 1019,2 40 0 0,0
11.01.2021 22:00:00 4,1 0,2 2,9 10,3 12,4 13 7 17 9 NNW 1018,9 40 0 0,0
11.01.2021 21:00:00 4,3 0,6 3,3 10,3 12,4 13 7 19 10 NNW 1018,7 40 0 0,0
11.01.2021 20:00:00 5,0 0,9 3,9 10,3 12,4 11 6 15 8 NW 1018,4 40 0 0,0
11.01.2021 19:00:00 9,0 0,4 7,5 10,3 12,4 8 4 16 9 E 1018,0 40 0 0,0
11.01.2021 18:00:00 9,2 0,9 8,0 10,3 12,4 11 6 22 12 ESE 1017,4 40 0 0,0
11.01.2021 17:00:00 9,4 1,5 8,4 10,3 12,4 15 8 27 15 ESE 1017,2 40 0 0,0
11.01.2021 16:00:00 9,6 1,5 9,2 10,3 12,4 16 8 22 12 E 1017,0 40 15 0,0
11.01.2021 15:00:00 10,3 2,4 11,0 10,3 12,4 5 3 14 8 SE 1016,8 40 10 0,0
11.01.2021 14:00:00 10,0 1,6 10,4 10,3 12,4 0 0 10 5 N 1016,7 40 1 0,0
11.01.2021 13:00:00 9,1 -0,8 10,3 10,3 12,4 10 5 21 12 NW 1017,4 40 29 0,0
11.01.2021 12:00:00 9,2 -1,5 10,0 10,3 12,4 16 8 29 16 NNW 1018,0 40 60 0,0
11.01.2021 11:00:00 7,4 -1,8 8,5 10,3 12,4 19 10 26 14 NNW 1018,1 40 60 0,0
11.01.2021 10:00:00 5,4 -2,0 5,7 10,3 12,4 16 8 23 13 NNW 1017,5 40 60 0,0
11.01.2021 09:00:00 4,0 -1,6 2,7 10,3 12,5 19 10 26 14 NNW 1016,5 40 31 0,0
11.01.2021 08:00:00 3,5 -1,3 2,5 10,3 12,5 17 9 24 13 NNW 1015,9 40 0 0,0
11.01.2021 07:00:00 3,6 -0,8 2,7 10,4 12,4 18 10 29 16 NNW 1015,4 40 0 0,0
11.01.2021 06:00:00 3,6 -0,6 2,9 10,4 12,5 20 11 28 15 NNW 1015,2 40 0 0,0
11.01.2021 05:00:00 4,0 -0,2 3,0 10,3 12,5 16 9 28 15 NNW 1014,9 40 0 0,0
11.01.2021 04:00:00 4,4 0,0 3,4 10,4 12,5 20 11 25 13 NNW 1014,9 40 0 0,0
11.01.2021 03:00:00 4,8 0,4 3,7 10,4 12,5 13 7 21 11 NNW 1015,1 40 0 0,0
11.01.2021 02:00:00 5,5 1,0 4,4 10,3 12,5 10 5 19 10 N 1014,8 40 0 0,0
11.01.2021 01:00:00 6,0 1,3 5,2 10,4 12,5 8 5 20 11 NNW 1014,6 40 0 0,0
11.01.2021 00:00:00 5,9 1,4 4,8 10,4 12,5 13 7 16 9 NNW 1014,6 40 0 0,0
10.01.2021 23:00:00 5,9 1,6 4,8 10,3 12,5 15 8 19 10 NNW 1014,6 40 0 0,0
10.01.2021 22:00:00 6,4 2,1 5,2 10,4 12,5 14 8 20 11 NNW 1014,5 40 0 0,0
10.01.2021 21:00:00 6,8 2,5 5,8 10,4 12,5 6 3 14 8 NW 1013,9 40 0 0,0
10.01.2021 20:00:00 7,3 2,6 6,0 10,4 12,6 13 7 18 10 NW 1013,4 40 0 0,0
10.01.2021 19:00:00 7,9 3,4 6,4 10,4 12,5 6 3 16 9 WNW 1012,7 40 0 0,0
10.01.2021 18:00:00 8,3 4,3 7,6 10,4 12,5 11 6 19 10 WNW 1012,3 40 0 0,0
10.01.2021 17:00:00 8,7 4,3 7,9 10,4 12,5 9 5 15 8 WNW 1012,1 40 0 0,0
10.01.2021 16:00:00 9,1 3,5 9,0 10,4 12,5 10 5 16 8 WNW 1011,7 40 0 0,0
10.01.2021 15:00:00 9,0 4,4 9,1 10,4 12,5 9 5 12 7 W 1011,5 40 0 0,0
10.01.2021 14:00:00 9,0 3,8 9,2 10,4 12,6 6 4 13 7 W 1011,6 40 0 0,0
10.01.2021 13:00:00 8,5 2,5 8,7 10,4 12,6 8 4 19 11 NW 1011,9 40 0 0,0
10.01.2021 12:00:00 7,9 3,0 7,6 10,4 12,6 12 7 22 12 NW 1012,3 40 0 0,0
10.01.2021 11:00:00 7,5 2,2 6,6 10,4 12,6 13 7 28 15 NW 1012,8 40 0 0,0
10.01.2021 10:00:00 7,3 0,9 5,8 10,4 12,6 17 9 33 18 NNW 1012,3 20 0 0,0
10.01.2021 09:00:00 8,5 -0,5 5,3 10,4 12,6 11 6 49 26 N 1011,5 20 0 0,0
10.01.2021 08:00:00 7,1 -0,4 4,9 10,4 12,6 9 5 31 17 N 1010,8 30 0 0,0
10.01.2021 07:00:00 6,1 -1,6 5,5 10,4 12,6 13 7 28 15 NNW 1010,5 40 0 0,0
10.01.2021 06:00:00 6,1 -1,6 - - - 18 10 26 14 NW 1010,0 10 - 0,0

tt = temperature
td = dewpoint
tt 5cm = temperature 5cm
tt -20cm = temperature -20cm
tt -100cm = temperature -100cm
ff = wind speed
fx = gusts
dd = wind direction
ppp = reduced air pressure
vv = visibility
sd = sunshine duration
rr = precipitation

Next stations